Tracking 19709 objects as of 19-Jun-2019
HD Live streaming from Space Station
objects crossing your sky now

TITAN 3C TRANSTAGE R/B

Track TITAN 3C TRANSTAGE R/B now!
10-day predictions


NORAD ID: 1863
Int'l Code: 1965-108A
Perigee: 348.0 km
Apogee: 21,365.4 km
Inclination: 26.7 °
Period: 375.1 minutes
Semi major axis: 17227 km
RCS: 10.3335 m2 (large)
Launch date: December 21, 1965
Source: United States (US)
Launch site: AIR FORCE EASTERN TEST RANGE (AFETR)

Note: This is a ROCKET BODY
aabbcc
Your satellite tracking list
Your tracking list is empty




NASA's NSSDC Master Catalog

Two Line Element Set (TLE):
1  1863U 65108A   19169.21438579  .00000440  00000-0  18123-3 0  9999
2  1863  26.7359 244.0760 6099901 311.0749  10.4539  3.83938715268920
Source of the keplerian elements: AFSPC